142  
ASUS44 KMOB 180912  
RWRMOB  
REGIONAL WEATHER ROUNDUP  
NATIONAL WEATHER SERVICE MOBILE AL  
400 AM CDT MON JUN 18 2018  
 
NOTE: "FAIR" INDICATES FEW OR NO CLOUDS BELOW 12,000 FEET WITH NO  
SIGNIFICANT WEATHER AND/OR S TO VISIBILITY
.  
 
* THESE STATIONS ARE PART OF THE UNIVERSITY OF SOUTH ALABAMA  
MESONET AND ARE NOT UNDER NWS OR FAA QUALITY CONTROL.
 
 
ALZ061>064-181000-  
COASTAL ALABAMA  
 
CITY SKY/WX TMP DP RH WIND PRES REMARKS
 
MOBILE REG APT FAIR 79 76 90 E5 30.09S  
BROOKLEY FIELD FAIR 82 78 88 E6 30.09S  
USA CAMPUS* NOT AVBL  
DOG RIVER* N/A 81 75 83 SE5 N/A  
 
 
CITY SKY/WX TMP DP RH WIND PRES REMARKS
 
GULF SHORES FAIR 76 76 100 CALM 30.08S  
 

 
 
ALZ051>060-181000-  
INTERIOR SOUTHWEST AND SOUTH CENTRAL ALABAMA  
 
CITY SKY/WX TMP DP RH WIND PRES REMARKS
 
GREENVILLE FAIR 72 68 87 CALM 30.11R  
EVERGREEN FAIR 71 69 93 CALM 30.11S  
ATMORE* N/A N/A N/A N/A CALM 30.85R  
ANDALUSIA/OPP FAIR 73 70 90 CALM 30.11R  
ANDALUSIA* N/A 70 70 100 CALM 30.11R  
FLORALA APT FAIR 71 68 90 CALM 30.12S  
FLORALA* N/A 70 70 100 CALM 30.82S  
 

 
 
FLZ001>006-181000-  
WESTERN FLORIDA PANHANDLE  
 
CITY SKY/WX TMP DP RH WIND PRES REMARKS
 
PENSACOLA FAIR 79 76 90 NE3 30.08S  
NAS PENSACOLA FAIR 78 75 90 CALM 30.08R  
MILTON FAIR 73 73 100 CALM 30.10R  
WHTNG S FIELD FAIR 74 74 100 E3 30.10R  
 
 
CITY SKY/WX TMP DP RH WIND PRES REMARKS
 
JAY* N/A 73 73 100 CALM N/A  
DUKE FIELD FAIR 73 72 99 CALM 30.09R  
CRESTVIEW FAIR 71 69 93 CALM 30.11R  
VALPARAISO CLEAR 76 72 88 CALM 30.09R  
DESTIN FAIR 77 74 90 CALM 30.09R  
 

 
 
MSZ076-079-181000-  
INTERIOR SOUTHEAST MISSISSIPPI  
 
CITY SKY/WX TMP DP RH WIND PRES REMARKS
 
LEAKESVILLE* NOT AVBL  
AGRICOLA* N/A 75 75 100 E2 30.07F  
 

 
 
MARINE OBSERVATIONS  
 
STATION/POSITION TIME TEMP WIND PRES WAVE
 
AIR SEA DIR/SP/G HT/PER  
(UTC) (F) (DEG/KT/KT) (MB) (FT/S)  
PETIT BOIS ISLND 0842 83 140/ 10/ 12 1018.9F  
GRAND BAY 0745 83 120/ 6 1019.0F  
KATRINA CUT 0830 83 120/ 10 1019.0R  
CEDAR POINT 0830 83 90/ 8 1018.0F  
E DAUPHIN ISLAND 0800 83 100/ 9/ 10 1018.3F  
MIDDLE BAY LIGHT 0830 81 120/ 10 1018.0F  
USCG MOBILE BAY 0842 81 84 130/ 5/ 6 1018.6S  
STATE DOCKS 0842 80 1018.5F  
MEAHER PARK 0830 79 100/ 4 1018.3F  
WEEKS BAY 0745 77 1018.0F  
FORT MORGAN 0842 82 120/ 9/ 10 N/A  
12 S ORANGE BCH 0850 83 100/ 8/ 10 1018.4S 3/ 8  
PENSACOLA BAY 0842 82 85 CALM / 3 1018.8S  
64 S DAUPHIN ISL 0850 84 150/ 10/ 12 1017.9F 3/ 6  
 

 
 
SELECTED LOCATIONS ACROSS THE REGION  
 
CITY SKY/WX TMP DP RH WIND PRES REMARKS
 
NEW ORLEANS CLOUDY 83 79 88 SE13 30.03S  
GULFPORT FAIR 84 76 76 SE12 30.05F  
PASCAGOULA AP FAIR 79 75 87 SE3 30.07S  
PASCAGOULA* N/A 81 77 89 CALM 30.07S  
HATTIESBURG MOCLDY 73 70 90 CALM 30.09S  
LAUREL FAIR 71 70 96 CALM 30.10R  
MERIDIAN FAIR 71 69 93 CALM 30.10S  
JACKSON FAIR 71 67 87 CALM 30.08S  
MONTGOMERY FAIR 71 70 96 CALM 30.12R  
TROY FAIR 70 68 93 NE3 30.13S FOG  
ASHFORD* N/A 70 70 100 CALM 30.11R  
DOTHAN FAIR 74 72 93 NE5 30.15R  
PANAMA CITY FAIR 74 71 91 CALM 30.08S  
 

 
 
 
 
CLICK HERE TO GO TO PREVIOUS BULLETINS.

The Nexlab AL Page
The Nexlab FL Page
The Nexlab MS Page Main Text Page